Data supplied by UK-AIR on 16/6/2020
All Data GMT hour ending 
Status: R =Ratified P=Provisional,P*=As supplied
,,St Helens Linkway,,,,,,,,,,,,,,,,,,,,,,,
Date,time,"PM<sub>10</sub> particulate matter (Hourly measured)",status,unit,"Nitric oxide",status,unit,"Nitrogen dioxide",status,unit,"Nitrogen oxides as nitrogen dioxide",status,unit
 
01-01-2019,01:00,25.121,R,ugm-3 (Ref.eq),,,,,,,,,
01-01-2019,02:00,17.392,R,ugm-3 (Ref.eq),,,,,,,,,
01-01-2019,03:00,14.493,R,ugm-3 (Ref.eq),,,,,,,,,
01-01-2019,04:00,16.425,R,ugm-3 (Ref.eq),,,,,,,,,
01-01-2019,05:00,22.223,R,ugm-3 (Ref.eq),,,,,,,,,
01-01-2019,06:00,20.290,R,ugm-3 (Ref.eq),,,,,,,,,
01-01-2019,07:00,16.425,R,ugm-3 (Ref.eq),,,,,,,,,
01-01-2019,08:00,11.594,R,ugm-3 (Ref.eq),,,,,,,,,
01-01-2019,09:00,8.696,R,ugm-3 (Ref.eq),,,,,,,,,
01-01-2019,10:00,7.730,R,ugm-3 (Ref.eq),,,,,,,,,
01-01-2019,11:00,18.358,R,ugm-3 (Ref.eq),,,,,,,,,
01-01-2019,12:00,27.054,R,ugm-3 (Ref.eq),,,,,,,,,
01-01-2019,13:00,26.087,R,ugm-3 (Ref.eq),,,,,,,,,
01-01-2019,14:00,24.155,R,ugm-3 (Ref.eq),,,,,,,,,
01-01-2019,15:00,30.918,R,ugm-3 (Ref.eq),,,,,,,,,
01-01-2019,16:00,26.087,R,ugm-3 (Ref.eq),,,,,,,,,
01-01-2019,17:00,20.290,R,ugm-3 (Ref.eq),,,,,,,,,
01-01-2019,18:00,24.155,R,ugm-3 (Ref.eq),,,,,,,,,
01-01-2019,19:00,26.087,R,ugm-3 (Ref.eq),,,,,,,,,
01-01-2019,20:00,19.324,R,ugm-3 (Ref.eq),,,,,,,,,
01-01-2019,21:00,15.459,R,ugm-3 (Ref.eq),,,,,,,,,
01-01-2019,22:00,20.290,R,ugm-3 (Ref.eq),,,,,,,,,
01-01-2019,23:00,21.256,R,ugm-3 (Ref.eq),,,,,,,,,
01-01-2019,24:00,26.087,R,ugm-3 (Ref.eq),,,,,,,,,
02-01-2019,01:00,19.324,R,ugm-3 (Ref.eq),,,,,,,,,
02-01-2019,02:00,17.392,R,ugm-3 (Ref.eq),,,,,,,,,
02-01-2019,03:00,12.561,R,ugm-3 (Ref.eq),,,,,,,,,
02-01-2019,04:00,17.392,R,ugm-3 (Ref.eq),,,,,,,,,
02-01-2019,05:00,5.797,R,ugm-3 (Ref.eq),,,,,,,,,
02-01-2019,06:00,9.662,R,ugm-3 (Ref.eq),,,,,,,,,
02-01-2019,07:00,16.425,R,ugm-3 (Ref.eq),,,,,,,,,
02-01-2019,08:00,10.628,R,ugm-3 (Ref.eq),,,,,,,,,
02-01-2019,09:00,16.425,R,ugm-3 (Ref.eq),,,,,,,,,
02-01-2019,10:00,26.087,R,ugm-3 (Ref.eq),,,,,,,,,
02-01-2019,11:00,28.020,R,ugm-3 (Ref.eq),,,,,,,,,
02-01-2019,12:00,,,,,,,,,,,,
02-01-2019,13:00,,,,,,,,,,,,
02-01-2019,14:00,51.209,R,ugm-3 (Ref.eq),,,,,,,,,
02-01-2019,15:00,62.803,R,ugm-3 (Ref.eq),,,,,,,,,
02-01-2019,16:00,44.445,R,ugm-3 (Ref.eq),,,,,,,,,
02-01-2019,17:00,51.209,R,ugm-3 (Ref.eq),,,,,,,,,
02-01-2019,18:00,36.716,R,ugm-3 (Ref.eq),,,,,,,,,
02-01-2019,19:00,67.634,R,ugm-3 (Ref.eq),,,,,,,,,
02-01-2019,20:00,54.107,R,ugm-3 (Ref.eq),,,,,,,,,
02-01-2019,21:00,55.073,R,ugm-3 (Ref.eq),,,,,,,,,
02-01-2019,22:00,52.175,R,ugm-3 (Ref.eq),,,,,,,,,
02-01-2019,23:00,36.716,R,ugm-3 (Ref.eq),,,,,,,,,
02-01-2019,24:00,34.783,R,ugm-3 (Ref.eq),,,,,,,,,
03-01-2019,01:00,42.513,R,ugm-3 (Ref.eq),,,,,,,,,
03-01-2019,02:00,30.918,R,ugm-3 (Ref.eq),1.47928,R,ugm-3,47.80328,R,ugm-3,50.07148,R,ugm-3
03-01-2019,03:00,24.155,R,ugm-3 (Ref.eq),1.07776,R,ugm-3,41.26586,R,ugm-3,42.91841,R,ugm-3
03-01-2019,04:00,25.121,R,ugm-3 (Ref.eq),4.02577,R,ugm-3,33.28292,R,ugm-3,39.45568,R,ugm-3
03-01-2019,05:00,22.223,R,ugm-3 (Ref.eq),2.69441,R,ugm-3,27.95990,R,ugm-3,32.09127,R,ugm-3
03-01-2019,06:00,28.986,R,ugm-3 (Ref.eq),8.93911,R,ugm-3,39.69772,R,ugm-3,53.40416,R,ugm-3
03-01-2019,07:00,27.054,R,ugm-3 (Ref.eq),22.75985,R,ugm-3,59.22993,R,ugm-3,94.12788,R,ugm-3
03-01-2019,08:00,39.614,R,ugm-3 (Ref.eq),19.93864,R,ugm-3,60.23930,R,ugm-3,90.81146,R,ugm-3
03-01-2019,09:00,42.513,R,ugm-3 (Ref.eq),24.97878,R,ugm-3,64.02114,R,ugm-3,102.32140,R,ugm-3
03-01-2019,10:00,48.310,R,ugm-3 (Ref.eq),39.02142,R,ugm-3,57.41330,R,ugm-3,117.24530,R,ugm-3
03-01-2019,11:00,74.397,R,ugm-3 (Ref.eq),71.35435,R,ugm-3,76.45751,R,ugm-3,185.86599,R,ugm-3
03-01-2019,12:00,46.378,R,ugm-3 (Ref.eq),47.99222,R,ugm-3,58.92356,R,ugm-3,132.51060,R,ugm-3
03-01-2019,13:00,47.344,R,ugm-3 (Ref.eq),34.17148,R,ugm-3,51.82793,R,ugm-3,104.22346,R,ugm-3
03-01-2019,14:00,52.175,R,ugm-3 (Ref.eq),26.34183,R,ugm-3,48.66546,R,ugm-3,89.05571,R,ugm-3
03-01-2019,15:00,45.411,R,ugm-3 (Ref.eq),28.97285,R,ugm-3,51.70308,R,ugm-3,96.12749,R,ugm-3
03-01-2019,16:00,64.735,R,ugm-3 (Ref.eq),68.37465,R,ugm-3,72.68650,R,ugm-3,177.52616,R,ugm-3
03-01-2019,17:00,61.837,R,ugm-3 (Ref.eq),99.40793,R,ugm-3,86.40785,R,ugm-3,238.83121,R,ugm-3
03-01-2019,18:00,58.938,R,ugm-3 (Ref.eq),78.13793,R,ugm-3,82.68706,R,ugm-3,202.49687,R,ugm-3
03-01-2019,19:00,55.073,R,ugm-3 (Ref.eq),45.45630,R,ugm-3,69.78615,R,ugm-3,139.48484,R,ugm-3
03-01-2019,20:00,60.871,R,ugm-3 (Ref.eq),34.42507,R,ugm-3,53.63379,R,ugm-3,106.41815,R,ugm-3
03-01-2019,21:00,66.668,R,ugm-3 (Ref.eq),34.61526,R,ugm-3,65.24227,R,ugm-3,118.31826,R,ugm-3
03-01-2019,22:00,49.276,R,ugm-3 (Ref.eq),16.70535,R,ugm-3,38.90942,R,ugm-3,64.52393,R,ugm-3
03-01-2019,23:00,52.175,R,ugm-3 (Ref.eq),14.61322,R,ugm-3,39.77631,R,ugm-3,62.18293,R,ugm-3
03-01-2019,24:00,40.580,R,ugm-3 (Ref.eq),5.23033,R,ugm-3,38.65405,R,ugm-3,46.67377,R,ugm-3
04-01-2019,01:00,43.479,R,ugm-3 (Ref.eq),10.04030,R,ugm-3,38.97978,R,ugm-3,54.37469,R,ugm-3
04-01-2019,02:00,38.648,R,ugm-3 (Ref.eq),3.04060,R,ugm-3,24.33765,R,ugm-3,28.99983,R,ugm-3
04-01-2019,03:00,35.749,R,ugm-3 (Ref.eq),3.19896,R,ugm-3,29.91430,R,ugm-3,34.81931,R,ugm-3
04-01-2019,04:00,36.716,R,ugm-3 (Ref.eq),7.12640,R,ugm-3,35.79136,R,ugm-3,46.71834,R,ugm-3
04-01-2019,05:00,41.547,R,ugm-3 (Ref.eq),8.23495,R,ugm-3,38.23676,R,ugm-3,50.86350,R,ugm-3
04-01-2019,06:00,32.851,R,ugm-3 (Ref.eq),1.42528,R,ugm-3,35.16977,R,ugm-3,37.35517,R,ugm-3
04-01-2019,07:00,50.242,R,ugm-3 (Ref.eq),9.34350,R,ugm-3,42.92542,R,ugm-3,57.25191,R,ugm-3
04-01-2019,08:00,41.547,R,ugm-3 (Ref.eq),28.12551,R,ugm-3,53.53010,R,ugm-3,96.65528,R,ugm-3
04-01-2019,09:00,55.073,R,ugm-3 (Ref.eq),60.08343,R,ugm-3,61.58548,R,ugm-3,153.71212,R,ugm-3
04-01-2019,10:00,57.006,R,ugm-3 (Ref.eq),48.74454,R,ugm-3,57.02659,R,ugm-3,131.76718,R,ugm-3
04-01-2019,11:00,53.141,R,ugm-3 (Ref.eq),41.99822,R,ugm-3,59.51939,R,ugm-3,123.91577,R,ugm-3
04-01-2019,12:00,57.006,R,ugm-3 (Ref.eq),59.10157,R,ugm-3,63.48111,R,ugm-3,154.10226,R,ugm-3
04-01-2019,13:00,62.803,R,ugm-3 (Ref.eq),59.00655,R,ugm-3,59.62795,R,ugm-3,150.10340,R,ugm-3
04-01-2019,14:00,61.837,R,ugm-3 (Ref.eq),71.89741,R,ugm-3,69.41477,R,ugm-3,179.65592,R,ugm-3
04-01-2019,15:00,53.141,R,ugm-3 (Ref.eq),63.69414,R,ugm-3,67.70435,R,ugm-3,165.36733,R,ugm-3
04-01-2019,16:00,65.702,R,ugm-3 (Ref.eq),60.27347,R,ugm-3,60.75767,R,ugm-3,153.17569,R,ugm-3
04-01-2019,17:00,59.904,R,ugm-3 (Ref.eq),59.10157,R,ugm-3,60.26252,R,ugm-3,150.88366,R,ugm-3
04-01-2019,18:00,54.107,R,ugm-3 (Ref.eq),59.79837,R,ugm-3,60.75463,R,ugm-3,152.44419,R,ugm-3
04-01-2019,19:00,50.242,R,ugm-3 (Ref.eq),64.96105,R,ugm-3,63.03084,R,ugm-3,162.63640,R,ugm-3
04-01-2019,20:00,53.141,R,ugm-3 (Ref.eq),75.76150,R,ugm-3,62.95348,R,ugm-3,179.11949,R,ugm-3
04-01-2019,21:00,51.209,R,ugm-3 (Ref.eq),78.45369,R,ugm-3,65.55529,R,ugm-3,185.84927,R,ugm-3
04-01-2019,22:00,49.276,R,ugm-3 (Ref.eq),79.53057,R,ugm-3,61.70960,R,ugm-3,183.65478,R,ugm-3
04-01-2019,23:00,52.175,R,ugm-3 (Ref.eq),123.61920,R,ugm-3,65.79479,R,ugm-3,255.34159,R,ugm-3
04-01-2019,24:00,43.479,R,ugm-3 (Ref.eq),90.61607,R,ugm-3,57.83027,R,ugm-3,196.77298,R,ugm-3
05-01-2019,01:00,8.696,R,ugm-3 (Ref.eq),4.30396,R,ugm-3,18.17186,R,ugm-3,24.77117,R,ugm-3
05-01-2019,02:00,12.561,R,ugm-3 (Ref.eq),4.93690,R,ugm-3,14.60072,R,ugm-3,22.17052,R,ugm-3
05-01-2019,03:00,10.628,R,ugm-3 (Ref.eq),5.12678,R,ugm-3,12.91173,R,ugm-3,20.77268,R,ugm-3
05-01-2019,04:00,12.561,R,ugm-3 (Ref.eq),9.24086,R,ugm-3,18.98914,R,ugm-3,33.15826,R,ugm-3
05-01-2019,05:00,7.730,R,ugm-3 (Ref.eq),7.50029,R,ugm-3,18.87854,R,ugm-3,30.37882,R,ugm-3
05-01-2019,06:00,11.594,R,ugm-3 (Ref.eq),13.19671,R,ugm-3,29.69777,R,ugm-3,49.93244,R,ugm-3
05-01-2019,07:00,9.662,R,ugm-3 (Ref.eq),19.81088,R,ugm-3,40.28009,R,ugm-3,70.65636,R,ugm-3
05-01-2019,08:00,16.425,R,ugm-3 (Ref.eq),31.45690,R,ugm-3,57.43434,R,ugm-3,105.66758,R,ugm-3
05-01-2019,09:00,22.223,R,ugm-3 (Ref.eq),56.04645,R,ugm-3,59.08195,R,ugm-3,145.01864,R,ugm-3
05-01-2019,10:00,23.189,R,ugm-3 (Ref.eq),62.85050,R,ugm-3,68.00778,R,ugm-3,164.37721,R,ugm-3
05-01-2019,11:00,22.223,R,ugm-3 (Ref.eq),68.38869,R,ugm-3,77.75306,R,ugm-3,182.61425,R,ugm-3
05-01-2019,12:00,28.986,R,ugm-3 (Ref.eq),68.76845,R,ugm-3,72.24579,R,ugm-3,177.68928,R,ugm-3
05-01-2019,13:00,27.054,R,ugm-3 (Ref.eq),64.93919,R,ugm-3,64.85393,R,ugm-3,164.42597,R,ugm-3
05-01-2019,14:00,25.121,R,ugm-3 (Ref.eq),60.28711,R,ugm-3,73.15731,R,ugm-3,165.59626,R,ugm-3
05-01-2019,15:00,18.358,R,ugm-3 (Ref.eq),51.17284,R,ugm-3,64.84803,R,ugm-3,143.31196,R,ugm-3
05-01-2019,16:00,20.290,R,ugm-3 (Ref.eq),38.38754,R,ugm-3,62.16758,R,ugm-3,121.02766,R,ugm-3
05-01-2019,17:00,18.358,R,ugm-3 (Ref.eq),36.26721,R,ugm-3,59.51849,R,ugm-3,115.12744,R,ugm-3
05-01-2019,18:00,26.087,R,ugm-3 (Ref.eq),26.36177,R,ugm-3,41.79217,R,ugm-3,82.21299,R,ugm-3
05-01-2019,19:00,22.223,R,ugm-3 (Ref.eq),15.66516,R,ugm-3,30.30146,R,ugm-3,54.32104,R,ugm-3
05-01-2019,20:00,43.479,R,ugm-3 (Ref.eq),21.07675,R,ugm-3,42.48390,R,ugm-3,74.80114,R,ugm-3
05-01-2019,21:00,20.290,R,ugm-3 (Ref.eq),31.36196,R,ugm-3,55.77571,R,ugm-3,103.86338,R,ugm-3
05-01-2019,22:00,23.189,R,ugm-3 (Ref.eq),24.27308,R,ugm-3,53.62568,R,ugm-3,90.84389,R,ugm-3
05-01-2019,23:00,19.324,R,ugm-3 (Ref.eq),15.31704,R,ugm-3,35.66269,R,ugm-3,59.14849,R,ugm-3
05-01-2019,24:00,15.459,R,ugm-3 (Ref.eq),10.38014,R,ugm-3,26.75088,R,ugm-3,42.66688,R,ugm-3
06-01-2019,01:00,16.425,R,ugm-3 (Ref.eq),19.76293,R,ugm-3,37.03173,R,ugm-3,67.33447,R,ugm-3
06-01-2019,02:00,13.527,R,ugm-3 (Ref.eq),16.73789,R,ugm-3,48.18736,R,ugm-3,73.85176,R,ugm-3
06-01-2019,03:00,17.392,R,ugm-3 (Ref.eq),6.64035,R,ugm-3,28.82449,R,ugm-3,39.00621,R,ugm-3
06-01-2019,04:00,14.493,R,ugm-3 (Ref.eq),11.06724,R,ugm-3,25.05966,R,ugm-3,42.02919,R,ugm-3
06-01-2019,05:00,16.425,R,ugm-3 (Ref.eq),10.43483,R,ugm-3,32.46537,R,ugm-3,48.46522,R,ugm-3
06-01-2019,06:00,17.392,R,ugm-3 (Ref.eq),10.24510,R,ugm-3,41.19137,R,ugm-3,56.90031,R,ugm-3
06-01-2019,07:00,13.527,R,ugm-3 (Ref.eq),1.42293,R,ugm-3,27.07286,R,ugm-3,29.25466,R,ugm-3
06-01-2019,08:00,18.358,R,ugm-3 (Ref.eq),7.39924,R,ugm-3,39.75279,R,ugm-3,51.09814,R,ugm-3
06-01-2019,09:00,25.121,R,ugm-3 (Ref.eq),6.41900,R,ugm-3,35.79494,R,ugm-3,45.63727,R,ugm-3
06-01-2019,10:00,22.223,R,ugm-3 (Ref.eq),26.15031,R,ugm-3,53.61584,R,ugm-3,93.71242,R,ugm-3
06-01-2019,11:00,28.986,R,ugm-3 (Ref.eq),52.23738,R,ugm-3,64.90939,R,ugm-3,145.00559,R,ugm-3
06-01-2019,12:00,37.682,R,ugm-3 (Ref.eq),42.37173,R,ugm-3,58.72937,R,ugm-3,123.69845,R,ugm-3
06-01-2019,13:00,36.716,R,ugm-3 (Ref.eq),87.39959,R,ugm-3,75.74507,R,ugm-3,209.75590,R,ugm-3
06-01-2019,14:00,28.986,R,ugm-3 (Ref.eq),69.94497,R,ugm-3,74.86279,R,ugm-3,182.11025,R,ugm-3
06-01-2019,15:00,28.020,R,ugm-3 (Ref.eq),48.47452,R,ugm-3,71.31288,R,ugm-3,145.63944,R,ugm-3
06-01-2019,16:00,30.918,R,ugm-3 (Ref.eq),54.89352,R,ugm-3,70.29571,R,ugm-3,154.46459,R,ugm-3
06-01-2019,17:00,35.749,R,ugm-3 (Ref.eq),71.43114,R,ugm-3,77.02098,R,ugm-3,186.54720,R,ugm-3
06-01-2019,18:00,38.648,R,ugm-3 (Ref.eq),38.45076,R,ugm-3,71.22622,R,ugm-3,130.18323,R,ugm-3
06-01-2019,19:00,43.479,R,ugm-3 (Ref.eq),66.87776,R,ugm-3,74.29994,R,ugm-3,176.84441,R,ugm-3
06-01-2019,20:00,48.310,R,ugm-3 (Ref.eq),105.70797,R,ugm-3,77.51236,R,ugm-3,239.59565,R,ugm-3
06-01-2019,21:00,52.175,R,ugm-3 (Ref.eq),128.47487,R,ugm-3,83.51137,R,ugm-3,280.50341,R,ugm-3
06-01-2019,22:00,25.121,R,ugm-3 (Ref.eq),51.13066,R,ugm-3,58.41504,R,ugm-3,136.81428,R,ugm-3
06-01-2019,23:00,27.054,R,ugm-3 (Ref.eq),12.93286,R,ugm-3,33.70591,R,ugm-3,53.53602,R,ugm-3
06-01-2019,24:00,21.256,R,ugm-3 (Ref.eq),7.46248,R,ugm-3,26.19868,R,ugm-3,37.64099,R,ugm-3
07-01-2019,01:00,25.121,R,ugm-3 (Ref.eq),4.26527,R,ugm-3,23.34583,R,ugm-3,29.88582,R,ugm-3
07-01-2019,02:00,23.189,R,ugm-3 (Ref.eq),3.20159,R,ugm-3,16.15243,R,ugm-3,21.06146,R,ugm-3
07-01-2019,03:00,26.087,R,ugm-3 (Ref.eq),2.68554,R,ugm-3,16.79743,R,ugm-3,20.91520,R,ugm-3
07-01-2019,04:00,18.358,R,ugm-3 (Ref.eq),1.70611,R,ugm-3,15.03273,R,ugm-3,17.64872,R,ugm-3
07-01-2019,05:00,15.459,R,ugm-3 (Ref.eq),4.39165,R,ugm-3,13.69390,R,ugm-3,20.42767,R,ugm-3
07-01-2019,06:00,14.493,R,ugm-3 (Ref.eq),10.52100,R,ugm-3,24.38208,R,ugm-3,40.51406,R,ugm-3
07-01-2019,07:00,22.223,R,ugm-3 (Ref.eq),23.63276,R,ugm-3,35.04104,R,ugm-3,71.27744,R,ugm-3
07-01-2019,08:00,16.425,R,ugm-3 (Ref.eq),51.05688,R,ugm-3,60.17347,R,ugm-3,138.45959,R,ugm-3
07-01-2019,09:00,13.527,R,ugm-3 (Ref.eq),46.53885,R,ugm-3,56.42403,R,ugm-3,127.78260,R,ugm-3
07-01-2019,10:00,9.662,R,ugm-3 (Ref.eq),46.47566,R,ugm-3,60.03116,R,ugm-3,131.29284,R,ugm-3
07-01-2019,11:00,8.696,R,ugm-3 (Ref.eq),36.90249,R,ugm-3,43.06887,R,ugm-3,99.65190,R,ugm-3
07-01-2019,12:00,11.594,R,ugm-3 (Ref.eq),27.80325,R,ugm-3,35.91064,R,ugm-3,78.54169,R,ugm-3
07-01-2019,13:00,16.425,R,ugm-3 (Ref.eq),23.03247,R,ugm-3,24.69945,R,ugm-3,60.01541,R,ugm-3
07-01-2019,14:00,20.290,R,ugm-3 (Ref.eq),17.09268,R,ugm-3,22.39871,R,ugm-3,48.60712,R,ugm-3
07-01-2019,15:00,25.121,R,ugm-3 (Ref.eq),18.70400,R,ugm-3,25.87596,R,ugm-3,54.55503,R,ugm-3
07-01-2019,16:00,18.358,R,ugm-3 (Ref.eq),22.93768,R,ugm-3,25.96611,R,ugm-3,61.13674,R,ugm-3
07-01-2019,17:00,20.290,R,ugm-3 (Ref.eq),24.07509,R,ugm-3,25.48970,R,ugm-3,62.40432,R,ugm-3
07-01-2019,18:00,20.290,R,ugm-3 (Ref.eq),18.07211,R,ugm-3,24.16341,R,ugm-3,51.87359,R,ugm-3
07-01-2019,19:00,22.223,R,ugm-3 (Ref.eq),15.44976,R,ugm-3,22.28513,R,ugm-3,45.97444,R,ugm-3
07-01-2019,20:00,19.324,R,ugm-3 (Ref.eq),8.94127,R,ugm-3,10.13064,R,ugm-3,23.84040,R,ugm-3
07-01-2019,21:00,27.054,R,ugm-3 (Ref.eq),9.06765,R,ugm-3,13.05708,R,ugm-3,26.96062,R,ugm-3
07-01-2019,22:00,12.561,R,ugm-3 (Ref.eq),5.18152,R,ugm-3,6.72989,R,ugm-3,14.67477,R,ugm-3
07-01-2019,23:00,18.358,R,ugm-3 (Ref.eq),3.91773,R,ugm-3,4.08485,R,ugm-3,10.09195,R,ugm-3
07-01-2019,24:00,20.290,R,ugm-3 (Ref.eq),1.89568,R,ugm-3,3.72380,R,ugm-3,6.63046,R,ugm-3
08-01-2019,01:00,26.087,R,ugm-3 (Ref.eq),0.96810,R,ugm-3,2.80551,R,ugm-3,4.28991,R,ugm-3
08-01-2019,02:00,16.425,R,ugm-3 (Ref.eq),1.68365,R,ugm-3,3.98330,R,ugm-3,6.56487,R,ugm-3
08-01-2019,03:00,15.459,R,ugm-3 (Ref.eq),0.59980,R,ugm-3,0.54279,R,ugm-3,1.46247,R,ugm-3
08-01-2019,04:00,19.324,R,ugm-3 (Ref.eq),0.78921,R,ugm-3,1.56858,R,ugm-3,2.77869,R,ugm-3
08-01-2019,05:00,22.223,R,ugm-3 (Ref.eq),0.82078,R,ugm-3,1.13019,R,ugm-3,2.38870,R,ugm-3
08-01-2019,06:00,28.986,R,ugm-3 (Ref.eq),2.24136,R,ugm-3,2.16942,R,ugm-3,5.60613,R,ugm-3
08-01-2019,07:00,31.885,R,ugm-3 (Ref.eq),6.59782,R,ugm-3,12.79551,R,ugm-3,22.91203,R,ugm-3
08-01-2019,08:00,31.885,R,ugm-3 (Ref.eq),16.54190,R,ugm-3,26.21254,R,ugm-3,51.57643,R,ugm-3
08-01-2019,09:00,35.749,R,ugm-3 (Ref.eq),24.43403,R,ugm-3,42.19086,R,ugm-3,79.65585,R,ugm-3
08-01-2019,10:00,35.749,R,ugm-3 (Ref.eq),17.39425,R,ugm-3,30.07301,R,ugm-3,56.74383,R,ugm-3
08-01-2019,11:00,28.020,R,ugm-3 (Ref.eq),17.33111,R,ugm-3,22.95497,R,ugm-3,49.52897,R,ugm-3
08-01-2019,12:00,51.209,R,ugm-3 (Ref.eq),17.11014,R,ugm-3,25.92625,R,ugm-3,52.16142,R,ugm-3
08-01-2019,13:00,42.513,R,ugm-3 (Ref.eq),15.84739,R,ugm-3,23.47501,R,ugm-3,47.77401,R,ugm-3
08-01-2019,14:00,37.682,R,ugm-3 (Ref.eq),15.97367,R,ugm-3,22.11142,R,ugm-3,46.60404,R,ugm-3
08-01-2019,15:00,35.749,R,ugm-3 (Ref.eq),19.91973,R,ugm-3,35.99921,R,ugm-3,66.54237,R,ugm-3
08-01-2019,16:00,30.918,R,ugm-3 (Ref.eq),18.59385,R,ugm-3,33.05980,R,ugm-3,61.56998,R,ugm-3
08-01-2019,17:00,28.986,R,ugm-3 (Ref.eq),54.14000,R,ugm-3,65.67091,R,ugm-3,148.68442,R,ugm-3
08-01-2019,18:00,27.054,R,ugm-3 (Ref.eq),40.34456,R,ugm-3,60.74291,R,ugm-3,122.60371,R,ugm-3
08-01-2019,19:00,16.425,R,ugm-3 (Ref.eq),48.07885,R,ugm-3,69.89466,R,ugm-3,143.61453,R,ugm-3
08-01-2019,20:00,24.155,R,ugm-3 (Ref.eq),50.25707,R,ugm-3,74.79333,R,ugm-3,151.85310,R,ugm-3
08-01-2019,21:00,30.918,R,ugm-3 (Ref.eq),64.21036,R,ugm-3,74.75066,R,ugm-3,173.20516,R,ugm-3
08-01-2019,22:00,18.358,R,ugm-3 (Ref.eq),33.58890,R,ugm-3,61.93664,R,ugm-3,113.43890,R,ugm-3
08-01-2019,23:00,28.986,R,ugm-3 (Ref.eq),36.39850,R,ugm-3,58.99362,R,ugm-3,114.80387,R,ugm-3
08-01-2019,24:00,23.189,R,ugm-3 (Ref.eq),6.06116,R,ugm-3,34.97044,R,ugm-3,44.26408,R,ugm-3
09-01-2019,01:00,16.425,R,ugm-3 (Ref.eq),4.73136,R,ugm-3,25.40423,R,ugm-3,32.65889,R,ugm-3
09-01-2019,02:00,15.459,R,ugm-3 (Ref.eq),1.17758,R,ugm-3,15.87244,R,ugm-3,17.67804,R,ugm-3
09-01-2019,03:00,9.662,R,ugm-3 (Ref.eq),4.19514,R,ugm-3,21.01075,R,ugm-3,27.44321,R,ugm-3
09-01-2019,04:00,12.561,R,ugm-3 (Ref.eq),1.32478,R,ugm-3,18.92888,R,ugm-3,20.96018,R,ugm-3
09-01-2019,05:00,7.730,R,ugm-3 (Ref.eq),1.86100,R,ugm-3,18.39915,R,ugm-3,21.25265,R,ugm-3
09-01-2019,06:00,6.763,R,ugm-3 (Ref.eq),10.31437,R,ugm-3,34.73300,R,ugm-3,50.54815,R,ugm-3
09-01-2019,07:00,8.696,R,ugm-3 (Ref.eq),29.05057,R,ugm-3,51.97072,R,ugm-3,96.51431,R,ugm-3
09-01-2019,08:00,14.493,R,ugm-3 (Ref.eq),95.41583,R,ugm-3,77.58173,R,ugm-3,223.88396,R,ugm-3
09-01-2019,09:00,21.256,R,ugm-3 (Ref.eq),148.56482,R,ugm-3,92.60206,R,ugm-3,320.39828,R,ugm-3
09-01-2019,10:00,8.696,R,ugm-3 (Ref.eq),105.63558,R,ugm-3,91.49964,R,ugm-3,253.47194,R,ugm-3
09-01-2019,11:00,14.493,R,ugm-3 (Ref.eq),87.68794,R,ugm-3,79.58459,R,ugm-3,214.03755,R,ugm-3
09-01-2019,12:00,7.730,R,ugm-3 (Ref.eq),34.85438,R,ugm-3,50.33463,R,ugm-3,103.77726,R,ugm-3
09-01-2019,13:00,37.682,R,ugm-3 (Ref.eq),18.38923,R,ugm-3,38.24246,R,ugm-3,66.43889,R,ugm-3
09-01-2019,14:00,31.885,R,ugm-3 (Ref.eq),20.81800,R,ugm-3,36.27321,R,ugm-3,68.19370,R,ugm-3
09-01-2019,15:00,35.749,R,ugm-3 (Ref.eq),23.49911,R,ugm-3,40.69255,R,ugm-3,76.72401,R,ugm-3
09-01-2019,16:00,23.189,R,ugm-3 (Ref.eq),19.71402,R,ugm-3,46.59376,R,ugm-3,76.82150,R,ugm-3
09-01-2019,17:00,30.918,R,ugm-3 (Ref.eq),68.35243,R,ugm-3,81.64250,R,ugm-3,186.44811,R,ugm-3
09-01-2019,18:00,34.783,R,ugm-3 (Ref.eq),119.89276,R,ugm-3,99.86060,R,ugm-3,283.69359,R,ugm-3
09-01-2019,19:00,24.155,R,ugm-3 (Ref.eq),104.31080,R,ugm-3,90.11882,R,ugm-3,250.05982,R,ugm-3
09-01-2019,20:00,31.885,R,ugm-3 (Ref.eq),146.41994,R,ugm-3,104.56738,R,ugm-3,329.07482,R,ugm-3
09-01-2019,21:00,31.885,R,ugm-3 (Ref.eq),130.83798,R,ugm-3,89.17123,R,ugm-3,289.78667,R,ugm-3
09-01-2019,22:00,23.189,R,ugm-3 (Ref.eq),95.79434,R,ugm-3,85.77538,R,ugm-3,232.65799,R,ugm-3
09-01-2019,23:00,28.986,R,ugm-3 (Ref.eq),69.70876,R,ugm-3,76.05323,R,ugm-3,182.93850,R,ugm-3
09-01-2019,24:00,28.020,R,ugm-3 (Ref.eq),91.63074,R,ugm-3,77.77982,R,ugm-3,218.27833,R,ugm-3
10-01-2019,01:00,23.189,R,ugm-3 (Ref.eq),74.53614,R,ugm-3,64.44323,R,ugm-3,178.73038,R,ugm-3
10-01-2019,02:00,26.087,R,ugm-3 (Ref.eq),76.89986,R,ugm-3,60.21777,R,ugm-3,178.12925,R,ugm-3
10-01-2019,03:00,28.020,R,ugm-3 (Ref.eq),88.62394,R,ugm-3,60.63241,R,ugm-3,196.52055,R,ugm-3
10-01-2019,04:00,18.358,R,ugm-3 (Ref.eq),63.75755,R,ugm-3,62.10770,R,ugm-3,159.86791,R,ugm-3
10-01-2019,05:00,26.087,R,ugm-3 (Ref.eq),59.53436,R,ugm-3,57.76284,R,ugm-3,149.04758,R,ugm-3
10-01-2019,06:00,27.054,R,ugm-3 (Ref.eq),67.79164,R,ugm-3,64.45172,R,ugm-3,168.39745,R,ugm-3
10-01-2019,07:00,30.918,R,ugm-3 (Ref.eq),95.05327,R,ugm-3,69.83167,R,ugm-3,215.57798,R,ugm-3
10-01-2019,08:00,38.648,R,ugm-3 (Ref.eq),135.80389,R,ugm-3,75.14589,R,ugm-3,283.37562,R,ugm-3
10-01-2019,09:00,57.972,R,ugm-3 (Ref.eq),131.04493,R,ugm-3,76.59405,R,ugm-3,277.52679,R,ugm-3
10-01-2019,10:00,74.397,R,ugm-3 (Ref.eq),228.27282,R,ugm-3,97.56797,R,ugm-3,447.58141,R,ugm-3
10-01-2019,11:00,90.823,R,ugm-3 (Ref.eq),195.52735,R,ugm-3,88.55763,R,ugm-3,388.36205,R,ugm-3
10-01-2019,12:00,78.262,R,ugm-3 (Ref.eq),197.10316,R,ugm-3,83.75314,R,ugm-3,385.97378,R,ugm-3
10-01-2019,13:00,100.485,R,ugm-3 (Ref.eq),231.96023,R,ugm-3,87.28369,R,ugm-3,442.95109,R,ugm-3
10-01-2019,14:00,21.256,R,ugm-3 (Ref.eq),46.04537,R,ugm-3,45.39981,R,ugm-3,116.00172,R,ugm-3
10-01-2019,15:00,9.662,R,ugm-3 (Ref.eq),35.26678,R,ugm-3,45.40381,R,ugm-3,99.47878,R,ugm-3
10-01-2019,16:00,10.628,R,ugm-3 (Ref.eq),42.57857,R,ugm-3,48.76588,R,ugm-3,114.05211,R,ugm-3
10-01-2019,17:00,14.493,R,ugm-3 (Ref.eq),41.57005,R,ugm-3,51.23832,R,ugm-3,114.97817,R,ugm-3
10-01-2019,18:00,17.392,R,ugm-3 (Ref.eq),38.70206,R,ugm-3,49.88449,R,ugm-3,109.22683,R,ugm-3
10-01-2019,19:00,9.662,R,ugm-3 (Ref.eq),29.08958,R,ugm-3,51.02491,R,ugm-3,95.62831,R,ugm-3
10-01-2019,20:00,7.730,R,ugm-3 (Ref.eq),19.22497,R,ugm-3,50.16365,R,ugm-3,79.64152,R,ugm-3
10-01-2019,21:00,11.594,R,ugm-3 (Ref.eq),17.11337,R,ugm-3,47.55255,R,ugm-3,73.79269,R,ugm-3
10-01-2019,22:00,11.594,R,ugm-3 (Ref.eq),6.90208,R,ugm-3,27.82425,R,ugm-3,38.40729,R,ugm-3
10-01-2019,23:00,11.594,R,ugm-3 (Ref.eq),5.67294,R,ugm-3,20.00960,R,ugm-3,28.70799,R,ugm-3
10-01-2019,24:00,10.628,R,ugm-3 (Ref.eq),6.14569,R,ugm-3,20.84442,R,ugm-3,30.26767,R,ugm-3
11-01-2019,01:00,11.594,R,ugm-3 (Ref.eq),5.47930,R,ugm-3,17.91587,R,ugm-3,26.31735,R,ugm-3
11-01-2019,02:00,8.696,R,ugm-3 (Ref.eq),1.34358,R,ugm-3,7.29715,R,ugm-3,9.35728,R,ugm-3
11-01-2019,03:00,5.797,R,ugm-3 (Ref.eq),1.44855,R,ugm-3,4.50446,R,ugm-3,6.72555,R,ugm-3
11-01-2019,04:00,2.899,R,ugm-3 (Ref.eq),1.48004,R,ugm-3,5.52837,R,ugm-3,7.79773,R,ugm-3
11-01-2019,05:00,4.831,R,ugm-3 (Ref.eq),2.33028,R,ugm-3,6.71022,R,ugm-3,10.28326,R,ugm-3
11-01-2019,06:00,9.662,R,ugm-3 (Ref.eq),6.73891,R,ugm-3,24.56200,R,ugm-3,34.89486,R,ugm-3
11-01-2019,07:00,15.459,R,ugm-3 (Ref.eq),25.85349,R,ugm-3,49.49636,R,ugm-3,89.13783,R,ugm-3
11-01-2019,08:00,6.763,R,ugm-3 (Ref.eq),33.37966,R,ugm-3,56.81716,R,ugm-3,107.99860,R,ugm-3
11-01-2019,09:00,10.628,R,ugm-3 (Ref.eq),61.81536,R,ugm-3,78.27871,R,ugm-3,173.06093,R,ugm-3
11-01-2019,10:00,6.763,R,ugm-3 (Ref.eq),46.82600,R,ugm-3,70.11988,R,ugm-3,141.91874,R,ugm-3
11-01-2019,11:00,13.527,R,ugm-3 (Ref.eq),33.41115,R,ugm-3,56.81762,R,ugm-3,108.04734,R,ugm-3
11-01-2019,12:00,10.628,R,ugm-3 (Ref.eq),38.10320,R,ugm-3,56.54373,R,ugm-3,114.96782,R,ugm-3
11-01-2019,13:00,8.696,R,ugm-3 (Ref.eq),27.96334,R,ugm-3,46.69993,R,ugm-3,89.57646,R,ugm-3
11-01-2019,14:00,10.628,R,ugm-3 (Ref.eq),25.34965,R,ugm-3,44.61556,R,ugm-3,83.48448,R,ugm-3
11-01-2019,15:00,14.493,R,ugm-3 (Ref.eq),32.87582,R,ugm-3,48.13496,R,ugm-3,98.54385,R,ugm-3
11-01-2019,16:00,14.493,R,ugm-3 (Ref.eq),41.18924,R,ugm-3,62.87490,R,ugm-3,126.03086,R,ugm-3
11-01-2019,17:00,21.256,R,ugm-3 (Ref.eq),53.75385,R,ugm-3,77.23716,R,ugm-3,159.65858,R,ugm-3
11-01-2019,18:00,18.358,R,ugm-3 (Ref.eq),69.37302,R,ugm-3,72.73370,R,ugm-3,179.10418,R,ugm-3
11-01-2019,19:00,16.425,R,ugm-3 (Ref.eq),51.26612,R,ugm-3,62.92189,R,ugm-3,141.52885,R,ugm-3
11-01-2019,20:00,16.425,R,ugm-3 (Ref.eq),35.99335,R,ugm-3,45.25551,R,ugm-3,100.44455,R,ugm-3
11-01-2019,21:00,9.662,R,ugm-3 (Ref.eq),23.08235,R,ugm-3,28.30529,R,ugm-3,63.69773,R,ugm-3
11-01-2019,22:00,8.696,R,ugm-3 (Ref.eq),16.21748,R,ugm-3,26.79353,R,ugm-3,51.65998,R,ugm-3
11-01-2019,23:00,11.594,R,ugm-3 (Ref.eq),10.89563,R,ugm-3,16.62891,R,ugm-3,33.33531,R,ugm-3
11-01-2019,24:00,7.730,R,ugm-3 (Ref.eq),5.60526,R,ugm-3,15.33467,R,ugm-3,23.92929,R,ugm-3
12-01-2019,01:00,3.865,R,ugm-3 (Ref.eq),2.86324,R,ugm-3,5.59971,R,ugm-3,9.98995,R,ugm-3
12-01-2019,02:00,2.899,R,ugm-3 (Ref.eq),1.09076,R,ugm-3,4.82505,R,ugm-3,6.49753,R,ugm-3
12-01-2019,03:00,5.797,R,ugm-3 (Ref.eq),1.79346,R,ugm-3,4.90091,R,ugm-3,7.65084,R,ugm-3
12-01-2019,04:00,3.865,R,ugm-3 (Ref.eq),1.41589,R,ugm-3,2.40976,R,ugm-3,4.58076,R,ugm-3
12-01-2019,05:00,6.763,R,ugm-3 (Ref.eq),1.25857,R,ugm-3,3.62561,R,ugm-3,5.55538,R,ugm-3
12-01-2019,06:00,10.628,R,ugm-3 (Ref.eq),1.95078,R,ugm-3,6.17036,R,ugm-3,9.16151,R,ugm-3
12-01-2019,07:00,9.662,R,ugm-3 (Ref.eq),3.33520,R,ugm-3,5.16843,R,ugm-3,10.28233,R,ugm-3
12-01-2019,08:00,10.628,R,ugm-3 (Ref.eq),4.43645,R,ugm-3,6.84235,R,ugm-3,13.64480,R,ugm-3
12-01-2019,09:00,11.594,R,ugm-3 (Ref.eq),9.72243,R,ugm-3,14.96487,R,ugm-3,29.87237,R,ugm-3
12-01-2019,10:00,12.561,R,ugm-3 (Ref.eq),12.45981,R,ugm-3,19.05195,R,ugm-3,38.15672,R,ugm-3
12-01-2019,11:00,14.493,R,ugm-3 (Ref.eq),17.17943,R,ugm-3,20.78188,R,ugm-3,47.12331,R,ugm-3
12-01-2019,12:00,12.561,R,ugm-3 (Ref.eq),19.53924,R,ugm-3,23.10879,R,ugm-3,53.06854,R,ugm-3
12-01-2019,13:00,13.527,R,ugm-3 (Ref.eq),22.84298,R,ugm-3,23.59851,R,ugm-3,58.62393,R,ugm-3
12-01-2019,14:00,10.628,R,ugm-3 (Ref.eq),26.46136,R,ugm-3,35.25261,R,ugm-3,75.82613,R,ugm-3
12-01-2019,15:00,11.594,R,ugm-3 (Ref.eq),24.22740,R,ugm-3,37.02109,R,ugm-3,74.16926,R,ugm-3
12-01-2019,16:00,12.561,R,ugm-3 (Ref.eq),22.43395,R,ugm-3,25.63890,R,ugm-3,60.03714,R,ugm-3